Flag for U.S.A. Weather past 2 weeks in Neenah, Wisconsin, U.S.A.

Now
7 °F

Sunny.


Feels Like: -5 °F
Forecast: -3 / 11 °F
Wind: 7 mph from Southwest

Location: Appleton / Outagamie

Current Time: Feb 27, 2015 at 10:12:02 AM

Latest Report: Feb 27, 2015 at 9:45 AM


Visibility: 10 mi

Pressure: 30.51 "Hg

Humidity: 56%

Dew point: -6 °F

Location of NeenahLocation

Historic Weather in Neenah — Graph

°F

Neenah temperature yesterday

Maximum temperature yesterday: 12 °F (at 2:45 PM)
Minimum temperature yesterday: -2 °F (at 5:45 AM)
Average temperature yesterday: 4 °F

Past Weeks' High & Low Weather Summary

 TemperatureHumidityPressure
High30 °F (Feb 13, 5:45 AM)86% (Feb 13, 7:45 PM)30.66 "Hg (Feb 13, 7:45 PM)
Low-17 °F (Feb 19, 6:45 AM)20% (Feb 13, 5:45 AM)29.50 "Hg (Feb 24, 1:45 PM)
Average6 °F60%30.16 "Hg
* Reported Feb 12 8:45 AM — Feb 27 8:45 AM, Neenah, Weather by CustomWeather, © 2015

Note: Actual official high and low records may vary slightly from our data, if they occured in-between our weather recording intervals... More about our weather records

Advertising

Neenah weather history for previous 24 hours

 ConditionsComfort  
Time TempWeatherWind HumidityBarometerVisibility
8:45 AM
Fri, Feb 27
1 °FSunny.9 mph60%30.50 "Hg10 mi
7:45 AM-2 °FSunny.9 mph65%30.49 "Hg10 mi
6:45 AM-4 °FSunny.10 mph65%30.47 "Hg10 mi
5:45 AM-6 °FClear.10 mph70%30.45 "Hg10 mi
4:15 AM-2 °FClear.10 mph65%30.43 "Hg10 mi
3:55 AM-2 °FClear.10 mph65%30.42 "Hg10 mi
3:35 AM-2 °FClear.10 mph65%30.42 "Hg10 mi
3:15 AM-2 °FClear.10 mph65%30.42 "Hg10 mi
2:55 AM-2 °FClear.9 mph71%30.41 "Hg10 mi
2:35 AM-2 °FClear.10 mph65%30.41 "Hg10 mi
2:15 AM0 °FClear.10 mph60%30.42 "Hg10 mi
1:55 AM0 °FClear.9 mph65%30.42 "Hg10 mi
1:35 AM0 °FClear.8 mph65%30.41 "Hg10 mi
1:15 AM0 °FClear.8 mph65%30.41 "Hg10 mi
12:55 AM0 °FClear.9 mph65%30.41 "Hg10 mi
12:35 AM1 °FClear.10 mph60%30.40 "Hg10 mi
12:15 AM1 °FClear.10 mph60%30.40 "Hg10 mi
11:55 PM
Thu, Feb 26
1 °FClear.10 mph60%30.40 "Hg10 mi
11:15 PM1 °FClear.9 mph60%30.39 "Hg10 mi
10:55 PM3 °FClear.10 mph60%30.39 "Hg10 mi
10:15 PM3 °FClear.10 mph55%30.38 "Hg10 mi
8:45 PM3 °FClear.8 mph50%30.36 "Hg10 mi
7:45 PM5 °FPassing clouds.7 mph51%30.35 "Hg10 mi
6:45 PM9 °FPassing clouds.6 mph43%30.34 "Hg10 mi
4:45 PM10 °FScattered clouds.9 mph44%30.31 "Hg10 mi
3:45 PM12 °FPartly sunny.7 mph40%30.30 "Hg10 mi
2:45 PM12 °FPartly sunny.7 mph44%30.30 "Hg10 mi
1:45 PM10 °FPartly sunny.8 mph47%30.29 "Hg10 mi
12:45 PM10 °FScattered clouds.10 mph47%30.30 "Hg10 mi
11:45 AM9 °FScattered clouds.14 mph51%30.32 "Hg10 mi
10:45 AM7 °FScattered clouds.12 mph56%30.32 "Hg10 mi
Weather by CustomWeather, © 2015

See weather overviewHow to use our weather pages